Wind_Speed
3 3 3 3 3 3 2 1 1 0 0 0 1 1 1 1 1 2 2 2 1 2 2 2 3 3 4 5 5 5 5 5 5 5 5 5 5 4 4 5 5 5 5 6 6 6 6 6 7
3 3 3 3 3 2 2 1 1 1 1 2 2 2 2 1 1 2 3 3 3 3 3 3 3 4 5 5 5 6 6 6 6 7 7 6 6 6 6 6 6 7 7 7 7 7 8 8 8
2 2 2 2 2 2 2 2 2 2 3 3 3 3 3 2 3 3 4 4 4 4 4 4 5 5 5 5 6 6 7 8 8 8 8 8 8 7 7 8 8 8 8 8 8 8 8 8 8
2 2 2 3 3 3 3 3 3 4 4 4 4 4 4 4 5 5 5 5 5 5 5 5 6 6 6 5 6 7 7 8 9 8 9 9 9 9 9 9 9 9 9 9 8 8 8 8 8
2 3 3 3 4 4 4 4 5 5 5 5 6 6 6 5 6 6 6 6 6 6 6 7 7 7 6 6 7 7 8 8 9 9 9 9 9 9 9 9 9 10 10 9 9 8 8 8 8
3 3 3 4 5 5 6 6 6 6 6 6 7 6 6 7 7 7 7 7 7 7 7 7 8 7 7 7 8 8 8 8 9 9 9 9 10 10 10 10 11 11 11 10 9 9 8 8 8
4 4 4 5 5 6 6 6 6 7 7 8 8 7 7 8 8 8 8 8 7 7 8 8 8 8 8 8 9 8 8 9 9 9 9 10 10 11 11 11 11 11 11 10 9 8 8 8 7
5 5 5 5 6 6 6 6 7 7 8 8 8 8 8 8 8 8 8 8 8 8 8 9 8 8 9 9 9 9 9 9 9 10 10 10 11 11 11 12 12 11 11 10 9 8 8 7 7
6 6 6 6 6 6 6 7 7 7 8 8 8 8 8 8 8 8 8 8 8 8 9 9 8 9 9 9 9 9 9 9 10 10 10 10 10 10 10 11 11 11 10 9 9 8 8 7 7
7 7 7 6 6 7 7 7 7 8 8 8 8 8 7 7 8 8 8 8 8 8 8 8 8 9 9 8 9 9 9 9 10 10 10 10 11 11 10 10 10 9 8 9 9 8 8 7 7
7 7 7 7 7 7 7 7 7 8 8 8 8 8 7 7 8 8 8 8 8 7 8 8 8 8 8 8 8 8 8 9 9 9 9 10 10 10 9 8 8 8 8 8 8 8 8 7 6
8 8 8 7 8 8 8 7 8 8 8 8 7 8 8 8 8 8 8 8 8 8 7 8 8 8 8 8 8 8 8 9 9 9 9 9 9 9 8 8 8 9 9 9 8 8 7 7 7
9 8 8 8 8 8 8 8 8 8 8 9 8 8 8 8 9 9 8 8 8 8 8 8 8 8 8 8 8 8 8 8 8 8 8 8 8 7 7 7 7 8 9 9 8 8 8 7 7
10 9 9 9 9 9 8 8 8 8 8 8 8 8 8 8 9 9 9 8 8 9 8 8 8 8 8 8 8 8 8 7 7 7 7 7 7 7 6 6 6 6 7 8 8 8 8 7 7
10 10 10 9 9 9 9 9 8 9 9 9 9 8 8 8 9 9 9 9 8 9 9 8 8 8 8 8 8 8 7 7 7 7 7 8 8 7 7 6 6 7 7 7 8 8 7 7 6
11 11 10 10 10 9 10 9 9 9 9 9 9 9 9 9 9 10 9 9 9 9 10 9 9 9 8 8 8 7 7 7 7 7 7 7 7 7 6 6 6 6 6 6 6 7 6 6 6
12 12 11 11 10 10 10 10 10 11 10 10 10 10 10 10 10 10 10 10 10 10 10 10 10 9 9 8 8 8 7 7 7 7 7 6 6 6 6 6 6 6 6 6 7 7 6 6 6
12 12 12 12 11 11 11 11 11 11 11 11 11 10 10 10 10 11 11 11 11 11 10 10 10 10 9 9 8 8 7 7 7 7 7 7 6 6 6 6 6 6 6 6 6 6 6 6 5
13 13 13 12 12 12 12 11 11 11 11 11 11 11 11 11 11 11 11 11 11 11 11 11 10 10 10 9 8 8 8 7 7 7 7 6 6 6 6 6 6 6 6 5 5 5 5 5 5
14 13 13 12 13 13 13 12 12 12 12 12 12 12 12 11 11 11 12 12 12 12 12 11 10 10 10 10 9 8 8 7 7 6 5 6 6 6 6 6 6 6 6 5 5 5 5 5 5
15 14 14 14 13 13 14 13 12 13 12 12 12 12 12 12 12 12 13 12 12 12 12 12 11 10 10 10 10 9 8 8 6 5 5 5 5 6 6 6 6 6 6 5 5 5 5 5 4
16 15 15 15 14 14 14 14 12 12 11 11 12 12 12 12 12 12 13 12 12 12 12 12 11 11 11 11 10 10 10 9 7 7 6 6 5 6 6 6 6 6 6 6 5 5 5 4 4
16 16 16 16 15 15 14 14 13 12 12 11 12 12 12 12 13 13 13 13 13 13 12 12 11 11 11 10 10 10 9 9 8 7 7 6 6 6 6 6 7 6 6 6 5 5 5 4 3
16 16 16 16 16 16 14 14 14 13 12 12 12 13 13 13 13 12 13 13 13 12 12 12 11 11 11 11 10 9 9 9 8 8 7 7 7 7 7 6 6 6 6 6 5 5 5 4 4
17 16 16 16 17 17 14 15 14 14 13 13 13 13 13 12 12 12 12 12 12 12 11 11 11 10 11 10 10 9 9 9 9 8 8 7 7 7 7 7 6 6 6 6 6 6 5 5 4
18 17 18 17 18 17 16 16 14 14 14 13 13 13 12 12 12 12 12 11 11 11 11 10 10 9 10 10 10 10 9 8 8 8 8 8 8 7 8 7 7 6 6 6 6 6 6 5 5
19 19 18 18 18 17 17 16 15 15 14 14 14 13 13 13 13 12 11 11 11 10 10 10 9 9 9 10 10 10 10 9 9 8 8 8 8 8 8 8 7 7 7 7 6 6 6 6 5
20 19 19 19 18 18 18 17 15 15 14 15 14 13 13 13 13 12 11 11 10 10 10 9 9 9 9 9 10 10 10 9 9 9 9 8 8 8 8 8 7 7 7 7 6 6 6 5 5
21 21 21 20 19 18 19 18 15 15 14 14 13 12 12 12 12 12 11 11 10 10 10 10 9 9 9 10 10 10 9 10 10 10 10 9 9 9 8 8 8 7 7 7 7 6 6 6 6
22 22 21 21 21 20 20 18 15 15 15 14 14 13 12 12 12 12 12 11 11 11 10 10 10 10 10 10 10 10 10 10 11 10 10 10 10 10 9 8 9 8 8 7 7 7 6 6 6
Wind_Direction
61 57 47 42 33 25 25 18 352 180 187 274 318 336 339 308 277 268 276 287 295 310 310 300 298 292 285 276 269 265 263 259 254 255 256 254 250 249 249 249 241 238 244 250 248 253 256 257 258
54 52 40 31 21 0 350 345 301 280 289 295 301 313 321 296 281 273 277 284 288 291 292 291 293 291 283 279 276 268 261 256 255 256 257 256 255 253 250 256 251 250 252 254 254 256 258 258 260
30 30 19 7 351 330 322 330 333 323 313 312 304 301 309 297 288 281 282 284 285 285 284 284 284 286 280 278 277 272 263 257 256 258 259 262 262 259 256 260 259 255 254 253 254 256 259 260 262
11 5 353 342 325 314 317 312 316 316 315 315 307 301 299 295 294 288 284 282 278 276 277 281 283 282 278 275 270 269 267 262 258 259 260 261 263 262 260 261 261 256 255 251 252 255 258 259 263
337 341 341 329 311 304 306 305 305 302 305 312 309 305 299 297 297 293 288 283 278 273 275 281 281 277 274 270 268 267 262 263 262 259 260 262 262 262 262 262 261 258 257 253 250 251 253 256 259
313 316 325 318 307 303 303 300 300 303 303 306 306 303 298 298 299 299 292 285 279 277 278 280 279 277 274 271 272 271 264 263 262 260 260 262 264 264 263 261 262 259 259 259 253 249 248 249 252
297 303 308 309 309 305 305 305 304 304 302 302 304 302 301 300 300 304 297 285 280 280 280 279 279 279 278 275 270 268 270 267 262 260 261 265 268 267 266 262 260 258 260 259 257 254 251 253 256
290 294 299 301 304 305 307 307 308 308 303 303 302 301 300 300 303 306 301 288 280 279 281 281 278 279 278 278 272 268 268 269 268 267 265 267 270 269 266 261 258 253 254 258 259 256 255 256 258
282 284 292 293 296 301 303 307 303 306 306 305 304 302 299 300 304 309 304 295 284 280 280 280 281 280 280 277 272 269 267 269 269 268 267 267 268 267 264 259 256 253 253 254 254 251 256 255 252
278 280 282 287 290 292 293 295 298 301 306 306 304 300 297 297 302 305 305 296 286 283 281 280 280 281 281 276 272 270 270 271 272 271 267 266 269 268 267 257 250 249 249 249 246 247 249 250 250
275 276 280 285 286 285 285 289 296 298 300 306 304 300 295 296 303 303 303 300 290 286 284 282 281 282 282 277 272 271 272 271 271 271 268 266 266 264 260 256 250 246 246 244 240 240 245 247 248
272 276 280 281 282 283 284 289 294 296 294 298 304 303 299 297 300 305 302 298 294 286 284 284 284 285 284 280 274 273 275 276 272 269 268 265 264 260 254 251 250 246 244 243 241 235 239 244 246
270 273 277 281 283 283 285 287 291 294 294 296 300 304 303 299 302 305 302 295 292 285 282 283 284 287 285 280 275 274 274 273 272 270 270 267 263 257 247 242 244 243 243 241 237 232 237 244 244
270 272 275 281 281 281 281 286 289 292 298 300 303 305 305 298 297 301 303 297 291 292 288 286 286 288 286 279 274 273 272 271 271 270 268 262 259 252 245 241 240 240 237 235 232 234 238 237 243
269 271 274 276 278 280 283 284 287 289 294 299 301 303 305 299 299 299 297 300 295 294 293 287 289 286 282 279 276 273 268 270 271 269 264 259 253 249 245 242 239 236 234 232 232 231 227 228 233
267 268 270 271 273 276 280 280 283 288 290 296 299 300 299 299 298 299 297 300 299 295 293 287 286 284 279 275 272 269 267 268 265 266 262 255 247 243 239 239 235 231 228 227 224 220 216 220 226
267 266 266 268 271 275 277 277 279 284 286 291 296 298 297 297 296 295 296 297 297 297 294 290 286 282 278 274 270 266 273 268 262 261 255 245 244 239 233 229 229 224 219 215 217 219 217 219 223
265 262 262 266 270 272 274 273 277 281 282 286 291 294 295 294 294 291 293 295 295 292 292 290 286 279 274 272 270 270 269 269 263 258 251 242 242 236 231 226 224 217 211 212 214 215 215 217 219
259 259 261 265 268 269 269 270 274 278 281 283 286 289 292 291 293 292 291 292 292 290 289 289 285 276 271 268 268 269 267 266 262 257 248 243 238 228 226 226 221 212 208 205 209 212 212 212 213
256 257 260 261 264 265 267 269 273 278 279 281 283 285 287 290 291 294 293 291 290 288 287 289 283 276 270 268 263 261 261 261 259 253 247 237 231 225 221 213 202 199 198 204 211 213 204 204 202
254 254 256 260 264 265 267 269 272 275 278 277 279 282 284 288 288 289 290 289 287 286 285 285 279 276 270 266 261 254 253 256 253 244 238 232 229 223 214 205 201 198 198 203 206 206 204 203 199
253 254 255 258 262 265 267 270 273 275 275 277 277 280 284 285 286 287 286 286 286 287 284 280 277 273 269 265 258 253 251 249 247 243 236 230 223 219 217 213 208 198 196 199 201 199 206 207 203
252 253 255 257 260 261 263 267 267 270 275 279 278 279 282 284 285 285 283 282 284 284 282 278 274 270 265 262 255 251 247 242 241 236 230 227 223 217 214 214 210 201 196 191 194 200 201 200 202
248 250 252 255 258 258 260 264 263 267 272 276 278 279 282 283 283 283 281 282 284 284 282 277 272 268 258 256 252 249 242 237 235 235 226 226 224 216 207 202 200 195 193 192 196 196 199 202 210
244 247 250 253 255 256 257 260 260 265 269 273 276 278 279 279 280 281 281 283 285 282 280 275 270 262 254 251 249 246 243 236 236 231 223 221 216 211 208 204 198 198 204 209 211 211 213 214 217
244 246 249 252 256 256 254 256 259 263 268 270 273 277 278 276 277 277 277 280 282 281 278 272 266 258 250 244 244 243 241 233 228 224 219 218 213 214 213 212 210 209 209 213 217 221 224 227 231
245 245 248 252 254 255 254 255 258 262 267 269 272 276 278 276 274 274 276 278 279 279 277 270 260 252 247 243 240 240 238 229 225 223 222 219 214 216 216 215 215 212 210 212 216 223 228 231 234
243 244 245 247 251 252 255 256 259 261 266 269 273 275 276 276 275 275 275 276 277 277 272 267 258 248 243 241 238 239 232 226 227 227 225 221 215 213 213 213 211 210 211 215 218 223 229 231 237
242 241 243 247 249 252 256 258 259 260 262 265 268 272 273 274 275 276 275 274 272 273 269 262 254 245 239 235 236 235 231 227 228 229 229 223 216 215 215 217 214 213 217 223 227 231 234 237 242
242 241 242 245 247 250 255 258 257 259 259 259 263 268 271 272 272 274 273 272 271 269 265 258 251 246 239 235 234 233 234 230 230 231 228 223 221 222 224 223 217 217 220 227 231 236 240 242 245
Height
5895 5895 5896 5896 5897 5897 5896 5896 5895 5895 5895 5894 5894 5893 5893 5893 5893 5894 5892 5890 5889 5889 5888 5888 5887 5887 5886 5886 5886 5885 5885 5885 5885 5885 5885 5884 5884 5884 5884 5884 5883 5883 5883 5883 5883 5883 5883 5883 5883
5896 5896 5897 5897 5897 5896 5896 5895 5895 5894 5894 5893 5893 5892 5892 5891 5891 5891 5890 5889 5889 5888 5887 5887 5886 5886 5885 5885 5884 5884 5884 5884 5884 5884 5883 5883 5883 5882 5882 5882 5882 5882 5882 5882 5882 5882 5882 5882 5882
5896 5896 5897 5897 5896 5896 5896 5895 5894 5894 5893 5893 5892 5892 5891 5890 5890 5889 5889 5888 5887 5887 5886 5886 5885 5885 5884 5884 5883 5883 5883 5882 5882 5882 5882 5882 5881 5881 5881 5881 5881 5880 5880 5880 5880 5880 5880 5880 5880
5896 5896 5897 5896 5895 5895 5895 5894 5893 5893 5892 5892 5891 5891 5890 5889 5889 5888 5887 5887 5886 5885 5885 5884 5884 5883 5883 5882 5882 5881 5881 5881 5880 5880 5880 5880 5880 5879 5879 5879 5879 5879 5878 5878 5878 5878 5878 5878 5878
5895 5896 5896 5895 5894 5894 5894 5893 5893 5892 5891 5891 5890 5889 5889 5888 5887 5886 5886 5885 5884 5884 5883 5883 5882 5882 5881 5880 5880 5880 5879 5879 5879 5878 5878 5878 5878 5878 5877 5877 5877 5877 5876 5876 5876 5876 5876 5876 5876
5895 5895 5895 5894 5894 5893 5893 5892 5891 5891 5890 5890 5889 5888 5887 5886 5885 5885 5884 5883 5883 5882 5882 5881 5881 5880 5879 5879 5878 5878 5878 5877 5877 5877 5876 5876 5876 5876 5876 5875 5875 5875 5875 5874 5874 5874 5874 5874 5874
5895 5894 5894 5893 5893 5892 5892 5891 5890 5889 5889 5888 5887 5887 5886 5885 5884 5883 5882 5881 5881 5880 5880 5879 5879 5878 5878 5877 5877 5876 5876 5875 5875 5875 5874 5874 5874 5874 5873 5873 5873 5873 5872 5872 5872 5872 5872 5873 5873
5893 5894 5892 5892 5892 5891 5891 5890 5889 5888 5888 5887 5886 5885 5884 5883 5882 5881 5880 5880 5879 5879 5878 5877 5876 5876 5876 5875 5875 5874 5874 5873 5873 5873 5872 5872 5872 5871 5871 5871 5871 5870 5870 5870 5870 5871 5871 5871 5871
5892 5893 5891 5891 5891 5890 5889 5888 5888 5887 5886 5885 5884 5883 5882 5881 5880 5880 5879 5878 5877 5877 5876 5875 5875 5874 5873 5873 5872 5872 5872 5871 5871 5870 5870 5870 5869 5869 5868 5868 5868 5868 5868 5868 5869 5869 5870 5869 5870
5890 5890 5890 5890 5889 5888 5888 5887 5886 5885 5884 5883 5882 5881 5880 5880 5879 5878 5877 5876 5875 5875 5874 5873 5873 5872 5871 5871 5870 5870 5869 5869 5869 5868 5868 5868 5867 5867 5866 5866 5866 5866 5866 5867 5867 5867 5868 5868 5868
5888 5888 5888 5887 5887 5886 5886 5885 5884 5884 5883 5882 5881 5880 5879 5878 5877 5876 5875 5874 5874 5873 5872 5871 5871 5870 5869 5869 5868 5868 5867 5867 5866 5866 5866 5865 5865 5865 5864 5864 5864 5864 5865 5865 5866 5866 5866 5866 5867
5886 5886 5886 5885 5885 5885 5884 5883 5883 5882 5881 5880 5879 5878 5877 5876 5875 5875 5874 5873 5872 5871 5870 5870 5869 5868 5868 5867 5866 5866 5865 5865 5864 5864 5864 5863 5863 5863 5863 5863 5863 5863 5863 5863 5864 5864 5865 5865 5865
5884 5884 5883 5883 5883 5882 5882 5881 5881 5880 5879 5878 5877 5876 5876 5875 5874 5873 5872 5871 5870 5869 5868 5868 5867 5866 5866 5865 5864 5864 5864 5863 5863 5862 5862 5861 5861 5861 5861 5861 5861 5861 5861 5862 5862 5863 5863 5863 5864
5882 5881 5881 5881 5880 5880 5880 5880 5879 5878 5877 5876 5876 5875 5874 5873 5872 5871 5870 5869 5868 5867 5866 5866 5865 5864 5864 5863 5863 5862 5862 5861 5861 5860 5860 5860 5859 5859 5860 5860 5860 5860 5860 5860 5861 5861 5862 5862 5862
5879 5879 5879 5879 5878 5878 5878 5878 5877 5876 5875 5875 5874 5873 5872 5871 5870 5869 5868 5868 5866 5866 5865 5864 5863 5863 5862 5861 5861 5861 5860 5860 5859 5859 5858 5858 5858 5858 5858 5858 5859 5859 5859 5859 5860 5860 5860 5861 5861
5876 5877 5877 5877 5876 5876 5877 5876 5875 5874 5873 5873 5872 5871 5870 5869 5868 5867 5867 5866 5865 5864 5863 5862 5861 5861 5860 5860 5859 5859 5858 5858 5857 5857 5856 5856 5856 5856 5857 5857 5857 5857 5858 5858 5859 5859 5859 5860 5860
5873 5874 5874 5874 5874 5873 5874 5873 5872 5871 5871 5870 5870 5869 5868 5867 5866 5866 5865 5864 5863 5862 5861 5860 5859 5859 5858 5858 5857 5857 5857 5856 5855 5855 5855 5855 5855 5855 5855 5855 5856 5856 5857 5857 5858 5858 5859 5859 5859
5871 5871 5871 5871 5871 5871 5870 5870 5870 5869 5868 5868 5867 5867 5866 5865 5864 5864 5863 5862 5861 5860 5859 5858 5857 5857 5856 5856 5855 5855 5855 5854 5854 5854 5853 5853 5853 5854 5854 5854 5855 5855 5856 5856 5857 5857 5858 5858 5859
5867 5867 5868 5868 5868 5868 5867 5867 5867 5866 5866 5865 5865 5864 5863 5863 5862 5861 5860 5860 5859 5858 5857 5856 5855 5855 5854 5854 5853 5853 5853 5853 5852 5852 5852 5852 5852 5852 5853 5853 5854 5854 5855 5856 5856 5857 5857 5858 5858
5863 5864 5865 5865 5864 5865 5864 5864 5864 5863 5863 5863 5862 5862 5861 5860 5859 5859 5858 5857 5856 5855 5855 5854 5853 5853 5852 5852 5852 5851 5851 5851 5851 5851 5851 5850 5851 5851 5852 5852 5853 5854 5854 5855 5856 5856 5857 5857 5857
5859 5860 5861 5861 5861 5861 5861 5862 5862 5861 5860 5860 5859 5859 5858 5858 5857 5856 5855 5854 5854 5853 5852 5851 5851 5850 5850 5850 5850 5849 5849 5849 5850 5850 5850 5850 5850 5850 5851 5852 5852 5853 5854 5855 5855 5856 5856 5857 5857
5855 5856 5857 5857 5858 5858 5859 5859 5859 5858 5857 5857 5856 5856 5855 5855 5854 5853 5853 5852 5851 5850 5849 5849 5848 5848 5848 5847 5847 5847 5848 5848 5848 5849 5849 5849 5849 5850 5850 5851 5852 5852 5853 5854 5854 5855 5856 5856 5856
5851 5852 5853 5853 5854 5854 5854 5855 5856 5855 5854 5854 5854 5853 5852 5852 5851 5850 5850 5849 5848 5847 5846 5846 5846 5845 5845 5845 5845 5845 5846 5846 5847 5847 5848 5848 5848 5849 5850 5850 5851 5852 5852 5853 5854 5855 5855 5856 5856
5846 5848 5848 5848 5849 5850 5851 5851 5852 5852 5852 5851 5851 5850 5849 5849 5848 5847 5847 5846 5845 5844 5844 5843 5843 5842 5842 5843 5843 5843 5844 5844 5845 5846 5846 5847 5847 5848 5849 5849 5850 5851 5852 5853 5853 5854 5855 5855 5855
5841 5843 5844 5844 5844 5846 5847 5847 5849 5848 5848 5848 5847 5847 5846 5845 5845 5844 5844 5843 5843 5842 5841 5840 5840 5840 5840 5840 5841 5841 5842 5843 5844 5844 5845 5845 5846 5847 5848 5849 5849 5850 5851 5852 5853 5853 5854 5854 5855
5836 5838 5840 5841 5841 5842 5842 5843 5845 5845 5844 5844 5844 5843 5843 5842 5842 5841 5841 5840 5840 5839 5838 5838 5838 5837 5838 5838 5839 5839 5840 5841 5842 5843 5843 5844 5845 5846 5847 5848 5849 5849 5850 5851 5852 5852 5853 5854 5854
5831 5832 5835 5836 5836 5837 5838 5840 5841 5840 5840 5840 5840 5840 5839 5839 5838 5838 5837 5837 5837 5836 5836 5835 5835 5835 5835 5836 5836 5837 5838 5839 5840 5841 5842 5843 5844 5845 5846 5847 5847 5848 5849 5850 5851 5851 5852 5852 5853
5826 5827 5829 5830 5831 5832 5834 5835 5837 5836 5836 5836 5836 5836 5836 5835 5835 5834 5834 5834 5834 5833 5833 5833 5833 5833 5833 5833 5834 5835 5836 5837 5838 5840 5840 5841 5842 5843 5844 5845 5846 5847 5848 5849 5850 5850 5851 5851 5852
5820 5821 5823 5824 5826 5828 5829 5833 5832 5832 5832 5832 5832 5832 5832 5832 5832 5831 5831 5831 5831 5831 5830 5830 5830 5830 5831 5831 5832 5833 5834 5835 5836 5838 5839 5840 5841 5842 5843 5844 5845 5846 5847 5848 5849 5849 5849 5850 5850
5813 5815 5817 5820 5820 5822 5824 5829 5827 5828 5828 5828 5828 5829 5828 5828 5828 5828 5828 5828 5828 5828 5827 5827 5828 5828 5829 5829 5830 5831 5832 5833 5834 5836 5837 5838 5839 5840 5841 5842 5843 5845 5846 5846 5847 5847 5848 5848 5848